Murray, KY

10:39 PM CDT on April 20, 2018 (GMT -0500)
Kyle-Oakley

Weather History for KCEY - July, 2013

Change the Weather History Date:

Saturday, July 13, 2013

  Actual Average (KPAH) Record (KPAH)
Temperature  
Mean Temperature 71 °F -  
Max Temperature 82 °F 89 °F 105 °F (1966)
Min Temperature 60 °F 69 °F 57 °F (2013)
Cooling Degree Days 6    
Growing Degree Days 21 (Base 50)    
Moisture  
Dew Point 60 °F    
Average Humidity 69    
Maximum Humidity 94    
Minimum Humidity 42    
Precipitation  
Precipitation 0.00 in - - ()
Sea Level Pressure  
Sea Level Pressure 30.04 in    
Wind  
Wind Speed 3 mph (NE)    
Max Wind Speed 14 mph    
Max Gust Speed 17 mph    
Visibility 10 miles    
Events      
Averages and records for this station are not official NWS values.
T = Trace of Precipitation, MM = Missing Value Source: NWS Daily Summary

Daily Weather History Graph

Daily Weather History Graph

Search for Another Location

Airport or City:

Astronomy

Jul. 13, 2013 Rise Set
Actual Time 5:45 AM CDT 8:12 PM CDT
Civil Twilight 5:15 AM CDT 8:42 PM CDT
Nautical Twilight 4:38 AM CDT 9:19 PM CDT
Astronomical Twilight 3:57 AM CDT 10:00 PM CDT
Moon 10:51 AM CDT (7/13) 11:03 PM CDT (7/13)
Length of Visible Light 15h 27m
Length of Day
14h 27m
Waxing Crescent, 26% of the Moon is Illuminated
Jul 13
Waxing Crescent
Jul 15
First Quarter
Jul 22
Full
Jul 29
Last Quarter
Aug 6
New

Hourly Weather History & Observations

Time (CDT) Temp. Heat Index Dew Point Humidity Pressure Visibility Wind Dir Wind Speed Gust Speed Precip Events Conditions
12:15 AM 66.2 °F - 59.0 °F 78% 30.04 in 10.0 mi Calm Calm - N/A   Clear
12:35 AM 66.2 °F - 59.0 °F 78% 30.04 in 10.0 mi Calm Calm - N/A   Unknown
12:55 AM 64.4 °F - 59.0 °F 83% 30.04 in 10.0 mi Calm Calm - N/A   Clear
1:15 AM 64.4 °F - 59.0 °F 83% 30.03 in 10.0 mi Calm Calm - N/A   Clear
1:35 AM 64.4 °F - 59.0 °F 83% 30.03 in 10.0 mi NE 3.5 mph - N/A   Clear
1:55 AM 64.4 °F - 59.0 °F 83% 30.03 in 10.0 mi Calm Calm - N/A   Unknown
2:15 AM 62.6 °F - 59.0 °F 88% 30.03 in 10.0 mi Calm Calm - N/A   Clear
2:35 AM 62.6 °F - 59.0 °F 88% 30.03 in 10.0 mi Calm Calm - N/A   Clear
2:55 AM 62.6 °F - 59.0 °F 88% 30.03 in 10.0 mi Calm Calm - N/A   Unknown
3:15 AM 62.6 °F - 59.0 °F 88% 30.03 in 10.0 mi Calm Calm - N/A   Unknown
3:35 AM 62.6 °F - 59.0 °F 88% 30.03 in 10.0 mi NNE 4.6 mph - N/A   Unknown
3:55 AM 62.6 °F - 59.0 °F 88% 30.03 in 10.0 mi Calm Calm - N/A   Clear
4:15 AM 60.8 °F - 59.0 °F 94% 30.03 in 10.0 mi Calm Calm - N/A   Clear
4:35 AM 60.8 °F - 59.0 °F 94% 30.03 in 10.0 mi Calm Calm - N/A   Clear
4:55 AM 62.6 °F - 59.0 °F 88% 30.03 in 10.0 mi Calm Calm - N/A   Clear
5:15 AM 60.8 °F - 59.0 °F 94% 30.04 in 10.0 mi NW 3.5 mph - N/A   Clear
5:35 AM 60.8 °F - 59.0 °F 94% 30.04 in 10.0 mi Calm Calm - N/A   Clear
5:55 AM 60.8 °F - 59.0 °F 94% 30.05 in 10.0 mi Calm Calm - N/A   Clear
6:15 AM 60.8 °F - 57.2 °F 88% 30.05 in 10.0 mi NNW 3.5 mph - N/A   Clear
6:35 AM 62.6 °F - 59.0 °F 88% 30.05 in 10.0 mi North 3.5 mph - N/A   Clear
6:55 AM 64.4 °F - 59.0 °F 83% 30.06 in 10.0 mi North 3.5 mph - N/A   Clear
7:15 AM 64.4 °F - 60.8 °F 88% 30.05 in 10.0 mi NNE 4.6 mph - N/A   Clear
7:35 AM 66.2 °F - 62.6 °F 88% 30.05 in 10.0 mi NNE 5.8 mph - N/A   Clear
7:55 AM 68.0 °F - 62.6 °F 83% 30.05 in 10.0 mi NE 4.6 mph - N/A   Clear
8:15 AM 69.8 °F - 62.6 °F 78% 30.05 in 10.0 mi NE 9.2 mph - N/A   Clear
8:35 AM 71.6 °F - 62.6 °F 73% 30.05 in 10.0 mi NE 8.1 mph - N/A   Clear
8:55 AM 73.4 °F - 62.6 °F 69% 30.05 in 10.0 mi NE 8.1 mph - N/A   Clear
9:15 AM 73.4 °F - 62.6 °F 69% 30.05 in 10.0 mi NE 6.9 mph - N/A   Clear
9:35 AM 75.2 °F - 60.8 °F 61% 30.05 in 10.0 mi NE 8.1 mph - N/A   Clear
9:55 AM 75.2 °F - 60.8 °F 61% 30.05 in 10.0 mi NE 8.1 mph - N/A   Clear
10:15 AM 77.0 °F - 60.8 °F 57% 30.05 in 10.0 mi NE 9.2 mph - N/A   Clear
10:35 AM 77.0 °F - 59.0 °F 54% 30.07 in 9.0 mi NNE 6.9 mph 16.1 mph N/A   Clear
10:55 AM 78.8 °F - 59.0 °F 51% 30.06 in 10.0 mi NE 13.8 mph 17.3 mph N/A   Clear
11:15 AM 77.0 °F - 57.2 °F 50% 30.06 in 10.0 mi NE 13.8 mph 17.3 mph N/A   Clear
11:35 AM 77.0 °F - 59.0 °F 54% 30.06 in 10.0 mi NE 8.1 mph - N/A   Clear
11:55 AM 77.0 °F - 59.0 °F 54% 30.06 in 10.0 mi NE 10.4 mph - N/A   Clear
12:15 PM 77.0 °F - 57.2 °F 50% 30.06 in 10.0 mi NNE 9.2 mph - N/A   Scattered Clouds
12:35 PM 80.6 °F 81.1 °F 59.0 °F 48% 30.06 in 10.0 mi East 6.9 mph - N/A   Partly Cloudy
12:55 PM 78.8 °F - 57.2 °F 47% 30.05 in 10.0 mi NNE 6.9 mph 16.1 mph N/A   Scattered Clouds
1:15 PM 80.6 °F 81.1 °F 59.0 °F 48% 30.05 in 10.0 mi NE 10.4 mph - N/A   Partly Cloudy
1:35 PM 80.6 °F 81.1 °F 59.0 °F 48% 30.04 in 10.0 mi SE 4.6 mph - N/A   Partly Cloudy
1:55 PM 80.6 °F 81.1 °F 59.0 °F 48% 30.04 in 10.0 mi East 8.1 mph - N/A   Scattered Clouds
2:15 PM 80.6 °F 81.1 °F 59.0 °F 48% 30.03 in 10.0 mi East 8.1 mph - N/A   Mostly Cloudy
2:35 PM 80.6 °F 80.8 °F 57.2 °F 45% 30.02 in 10.0 mi East 4.6 mph - N/A   Scattered Clouds
2:55 PM 80.6 °F 81.1 °F 59.0 °F 48% 30.02 in 10.0 mi ENE 8.1 mph - N/A   Scattered Clouds
3:15 PM 82.4 °F 82.5 °F 59.0 °F 45% 30.01 in 10.0 mi ENE 10.4 mph - N/A   Mostly Cloudy
3:35 PM 80.6 °F 80.8 °F 57.2 °F 45% 30.01 in 10.0 mi East 8.1 mph - N/A   Mostly Cloudy
3:55 PM 80.6 °F 81.1 °F 59.0 °F 48% 30.01 in 10.0 mi NNE 6.9 mph - N/A   Mostly Cloudy
4:15 PM 80.6 °F 81.1 °F 59.0 °F 48% 30.01 in 10.0 mi Calm Calm - N/A   Mostly Cloudy
4:35 PM 80.6 °F 80.8 °F 57.2 °F 45% 30.01 in 10.0 mi East 6.9 mph - N/A   Scattered Clouds
4:55 PM 82.4 °F 82.0 °F 57.2 °F 42% 30.01 in 10.0 mi East 9.2 mph - N/A   Mostly Cloudy
5:15 PM 80.6 °F 81.1 °F 59.0 °F 48% 30.01 in 10.0 mi ENE 10.4 mph 17.3 mph N/A   Scattered Clouds
5:35 PM 80.6 °F 81.1 °F 59.0 °F 48% 30.01 in 10.0 mi ENE 8.1 mph - N/A   Clear
5:55 PM 80.6 °F 81.1 °F 59.0 °F 48% 30.01 in 10.0 mi NE 8.1 mph - N/A   Clear
6:15 PM 80.6 °F 81.1 °F 59.0 °F 48% 30.00 in 10.0 mi East 9.2 mph - N/A   Clear
6:35 PM 80.6 °F 81.5 °F 60.8 °F 51% 30.01 in 10.0 mi East 4.6 mph - N/A   Clear
6:55 PM 78.8 °F - 60.8 °F 54% 30.01 in 10.0 mi East 4.6 mph - N/A   Clear
7:15 PM 77.0 °F - 60.8 °F 57% 30.01 in 10.0 mi ENE 4.6 mph - N/A   Clear
7:35 PM 77.0 °F - 62.6 °F 61% 30.02 in 10.0 mi ENE 3.5 mph - N/A   Clear
7:55 PM 77.0 °F - 62.6 °F 61% 30.02 in 10.0 mi NNE 3.5 mph - N/A   Partly Cloudy
8:15 PM 73.4 °F - 62.6 °F 69% 30.02 in 10.0 mi Calm Calm - N/A   Partly Cloudy
8:35 PM 71.6 °F - 62.6 °F 73% 30.02 in 10.0 mi Calm Calm - N/A   Scattered Clouds
8:55 PM 73.4 °F - 64.4 °F 73% 30.03 in 10.0 mi Calm Calm - N/A   Partly Cloudy
9:15 PM 71.6 °F - 62.6 °F 73% 30.03 in 10.0 mi ENE 3.5 mph - N/A   Clear
9:35 PM 71.6 °F - 62.6 °F 73% 30.03 in 10.0 mi NE 3.5 mph - N/A   Clear
9:55 PM 69.8 °F - 62.6 °F 78% 30.04 in 10.0 mi ENE 3.5 mph - N/A   Unknown
10:15 PM 69.8 °F - 62.6 °F 78% 30.04 in 10.0 mi East 5.8 mph - N/A   Clear
10:35 PM 68.0 °F - 62.6 °F 83% 30.04 in 10.0 mi East 3.5 mph - N/A   Unknown
10:55 PM 68.0 °F - 62.6 °F 83% 30.04 in 10.0 mi East 3.5 mph - N/A   Clear
11:15 PM 68.0 °F - 64.4 °F 88% 30.04 in 10.0 mi East 3.5 mph - N/A   Clear
11:35 PM 68.0 °F - 64.4 °F 88% 30.04 in 10.0 mi ENE 3.5 mph - N/A   Unknown
11:55 PM 68.0 °F - 64.4 °F 88% 30.05 in 10.0 mi East 3.5 mph - N/A   Unknown